{"data":{"norad_id":65910,"epoch":"2026-09-20T12:44:08.459808Z","epoch_age_seconds":100426,"freshness":"FRESH","line1":"1 65910U 25225A   26263.53065347  .00016242  00000+0  49065-3 0  9990","line2":"2 65910  53.1630 337.5107 0001151  68.1936 291.9189 15.34408816 54286","mean_motion":15.34408816,"eccentricity":0.0001151,"inclination_deg":53.163,"raan_deg":337.5107,"arg_perigee_deg":68.1936,"mean_anomaly_deg":291.9189,"bstar":0.00049065,"rev_number":5428,"period_min":93.847218875729,"perigee_km":461.88965962698,"apogee_km":463.46441501837,"semimajor_km":6840.8140373227,"source":"CELESTRAK","updated_at":"2026-09-21T09:00:35.762077Z"}}